Weather History for Hamilton, OH

Change the Weather History Date:

Friday, December 13, 2013

  Actual Average (KCVG) Record (KCVG)
Temperature  
Mean Temperature 24 °F 34 °F  
Max Temperature 39 °F 42 °F 67 °F (1927)
Min Temperature 8 °F 27 °F -3 °F (1962)
Degree Days  
Heating Degree Days 42 31  
Month to date heating degree days 372  
Since 1 July heating degree days 1332  
Cooling Degree Days 0 0  
Month to date cooling degree days 0  
Year to date cooling degree days 1121  
Moisture  
Dew Point 18 °F    
Average Humidity 75    
Maximum Humidity 96    
Minimum Humidity 45    
Precipitation  
Precipitation 0.02 in 0.11 in 1.64 in (1927)
Month to date precipitation 1.45  
Year to date precipitation 40.60  
Snow  
Snow 0.00 in 0.10 in 4.00 in (1945)
Month to date snowfall 1.5  
Since 1 July snowfall 2.3  
Snow Depth -    
Sea Level Pressure  
Sea Level Pressure 30.27 in    
Wind  
Wind Speed 1 mph (SSW)    
Max Wind Speed 7 mph    
Max Gust Speed -    
Visibility 8 miles    
Events Snow    
T = Trace of Precipitation, MM = Missing Value Source: NWS Daily Summary

Daily Weather History Graph

Daily Weather History Graph

Search for Another Location

Airport:

Trip Planner

Search our weather history database for the weather conditions in past years. The results will help you decide how hot, cold, wet, or windy it might be!

Date:

Astronomy

Dec. 13, 2013 Rise Set
Actual Time 7:49 AM EST 5:15 PM EST
Civil Twilight 7:19 AM EST 5:45 PM EST
Nautical Twilight 6:45 AM EST 6:19 PM EST
Astronomical Twilight 6:13 AM EST 6:51 PM EST
Moon 2:56 PM EST (12/13) 4:12 AM EST (12/13)
Length of Visible Light 10h 25m
Length of Day
9h 25m
Waxing Gibbous, 88% of the Moon is Illuminated
Dec 13
Waxing Gibbous
Dec 17
Full
Dec 25
Last Quarter
Jan 1
New
Jan 7
First Quarter

Hourly Weather History & Observations

Time (EST) Temp. Windchill Dew Point Humidity Pressure Visibility Wind Dir Wind Speed Gust Speed Precip Events Conditions
12:53 AM 12.9 °F - 7.0 °F 77% 30.38 in 10.0 mi Calm Calm - N/A   Mostly Cloudy
1:53 AM 10.0 °F - 6.1 °F 84% 30.37 in 10.0 mi Calm Calm - N/A   Clear
2:53 AM 10.0 °F - 6.1 °F 84% 30.35 in 10.0 mi Calm Calm - N/A   Clear
3:53 AM 9.0 °F - 6.1 °F 88% 30.35 in 10.0 mi Calm Calm - N/A   Clear
4:53 AM 10.0 °F - 6.1 °F 84% 30.33 in 10.0 mi Calm Calm - N/A   Clear
5:53 AM 8.1 °F - 5.0 °F 87% 30.32 in 10.0 mi Calm Calm - N/A   Clear
6:53 AM 10.0 °F - 5.0 °F 80% 30.32 in 10.0 mi Calm Calm - N/A   Clear
7:53 AM 9.0 °F - 7.0 °F 92% 30.32 in 7.0 mi Calm Calm - N/A   Clear
8:53 AM 16.0 °F - 12.0 °F 84% 30.32 in 8.0 mi Calm Calm - N/A   Clear
9:53 AM 21.9 °F - 15.1 °F 75% 30.32 in 10.0 mi Calm Calm - N/A   Clear
10:53 AM 30.0 °F 24.1 °F 17.1 °F 59% 30.32 in 10.0 mi WSW 5.8 mph - 0.00 in   Clear
11:53 AM 33.1 °F 28.7 °F 17.1 °F 52% 30.30 in 10.0 mi West 4.6 mph - N/A   Clear
12:53 PM 35.1 °F - 18.0 °F 50% 30.26 in 10.0 mi Calm Calm - N/A   Clear
1:53 PM 39.0 °F 34.0 °F 19.0 °F 45% 30.24 in 10.0 mi WSW 6.9 mph - N/A   Clear
2:53 PM 39.0 °F 35.7 °F 19.0 °F 45% 30.23 in 10.0 mi SW 4.6 mph - N/A   Clear
3:53 PM 37.9 °F 34.4 °F 19.0 °F 47% 30.22 in 10.0 mi South 4.6 mph - N/A   Clear
4:53 PM 35.1 °F - 19.9 °F 54% 30.21 in 10.0 mi Calm Calm - N/A   Clear
5:53 PM 33.1 °F - 19.9 °F 59% 30.21 in 10.0 mi Calm Calm - N/A   Clear
6:53 PM 33.1 °F - 21.9 °F 64% 30.24 in 10.0 mi Calm Calm - N/A   Clear
7:53 PM 32.0 °F - 24.1 °F 73% 30.24 in 10.0 mi Calm Calm - N/A   Mostly Cloudy
8:53 PM 33.1 °F - 25.0 °F 72% 30.24 in 10.0 mi Calm Calm - N/A   Overcast
9:45 PM 35.6 °F 30.7 °F 30.2 °F 81% 30.20 in 4.0 mi South 5.8 mph - 0.00 in Snow Light Snow
9:53 PM 34.0 °F 31.0 °F 30.9 °F 89% 30.22 in 3.0 mi SSW 3.5 mph - 0.00 in Snow Light Snow
10:05 PM 33.8 °F - 32.0 °F 93% 30.19 in 1.8 mi Calm Calm - 0.01 in Snow Light Snow
10:18 PM 33.8 °F 30.8 °F 32.0 °F 93% 30.17 in 3.0 mi East 3.5 mph - 0.01 in Snow Light Snow
10:26 PM 33.8 °F 30.8 °F 32.0 °F 93% 30.17 in 6.0 mi ENE 3.5 mph - 0.01 in Snow Light Snow
10:53 PM 33.1 °F - 32.0 °F 96% 30.20 in 10.0 mi Calm Calm - 0.02 in   Overcast
11:53 PM 33.1 °F - 32.0 °F 96% 30.20 in 5.0 mi Calm Calm - 0.00 in Snow Light Snow